Time,TemperatureF,DewpointF,PressureIn,WindDirection,WindDirectionDegrees,WindSpeedMPH,WindSpeedGustMPH,Humidity,HourlyPrecipIn,Conditions,Clouds,dailyrainin,SoftwareType,DateUTC
2013-02-05 00:08:00,45.3,41.0,30.32,NE,34,0.0,0.0,86,0.00,,,0.00,weatherlink.com 1.10,2013-02-04 23:08:00,
2013-02-05 00:23:00,45.8,42.0,30.32,NE,36,4.0,6.0,86,0.00,,,0.00,weatherlink.com 1.10,2013-02-04 23:23:00,
2013-02-05 00:38:00,45.7,42.0,30.32,ENE,66,0.0,5.0,86,0.00,,,0.00,weatherlink.com 1.10,2013-02-04 23:38:00,
2013-02-05 00:53:00,45.2,42.0,30.32,NNE,26,1.0,1.0,88,0.00,,,0.00,weatherlink.com 1.10,2013-02-04 23:53:00,
2013-02-05 01:08:00,45.2,42.0,30.32,NNE,18,1.0,2.0,88,0.00,,,0.00,weatherlink.com 1.10,2013-02-05 00:08:00,
2013-02-05 01:23:00,45.1,42.0,30.32,North,360,4.0,4.0,89,0.00,,,0.00,weatherlink.com 1.10,2013-02-05 00:23:00,
2013-02-05 01:38:00,45.7,43.0,30.31,NNW,342,3.0,6.0,90,0.00,,,0.00,weatherlink.com 1.10,2013-02-05 00:38:00,
2013-02-05 01:53:00,46.3,44.0,30.31,NNE,16,5.0,7.0,90,0.00,,,0.00,weatherlink.com 1.10,2013-02-05 00:53:00,
2013-02-05 02:08:00,46.6,44.0,30.31,NNW,332,5.0,8.0,90,0.00,,,0.00,weatherlink.com 1.10,2013-02-05 01:08:00,
2013-02-05 02:23:00,46.9,44.0,30.30,NNE,32,3.0,9.0,90,0.00,,,0.00,weatherlink.com 1.10,2013-02-05 01:23:00,
2013-02-05 02:38:00,47.1,44.0,30.30,NNE,18,4.0,9.0,90,0.00,,,0.00,weatherlink.com 1.10,2013-02-05 01:38:00,
2013-02-05 02:53:00,46.9,44.0,30.30,NE,36,3.0,6.0,90,0.00,,,0.00,weatherlink.com 1.10,2013-02-05 01:53:00,
2013-02-05 03:08:00,46.5,44.0,30.29,NNE,19,3.0,5.0,91,0.00,,,0.00,weatherlink.com 1.10,2013-02-05 02:08:00,
2013-02-05 03:23:00,46.2,44.0,30.29,NE,37,2.0,4.0,90,0.00,,,0.00,weatherlink.com 1.10,2013-02-05 02:23:00,
2013-02-05 03:38:00,45.7,43.0,30.29,NE,35,4.0,4.0,90,0.00,,,0.00,weatherlink.com 1.10,2013-02-05 02:38:00,
2013-02-05 03:53:00,45.7,43.0,30.28,NNE,20,4.0,6.0,91,0.00,,,0.00,weatherlink.com 1.10,2013-02-05 02:53:00,
2013-02-05 04:08:00,46.3,44.0,30.28,NNE,18,3.0,6.0,91,0.00,,,0.00,weatherlink.com 1.10,2013-02-05 03:08:00,
2013-02-05 04:24:00,46.8,45.0,30.27,NNW,346,5.0,7.0,92,0.00,,,0.00,weatherlink.com 1.10,2013-02-05 03:24:00,
2013-02-05 04:39:00,47.0,45.0,30.26,NNW,344,6.0,7.0,92,0.00,,,0.00,weatherlink.com 1.10,2013-02-05 03:39:00,
2013-02-05 04:54:00,47.4,46.0,30.26,NNW,344,6.0,6.0,93,0.00,,,0.00,weatherlink.com 1.10,2013-02-05 03:54:00,
2013-02-05 05:09:00,47.0,45.0,30.25,North,354,4.0,7.0,93,0.00,,,0.00,weatherlink.com 1.10,2013-02-05 04:09:00,
2013-02-05 05:24:00,47.2,46.0,30.25,North,6,4.0,9.0,94,0.00,,,0.00,weatherlink.com 1.10,2013-02-05 04:24:00,
2013-02-05 05:39:00,47.4,46.0,30.25,North,354,8.0,8.0,94,0.00,,,0.00,weatherlink.com 1.10,2013-02-05 04:39:00,
2013-02-05 05:54:00,47.2,46.0,30.25,NNE,18,5.0,7.0,94,0.00,,,0.00,weatherlink.com 1.10,2013-02-05 04:54:00,
2013-02-05 06:09:00,47.4,46.0,30.25,North,354,6.0,7.0,95,0.00,,,0.00,weatherlink.com 1.10,2013-02-05 05:09:00,
2013-02-05 06:24:00,47.1,46.0,30.24,North,10,3.0,5.0,95,0.00,,,0.00,weatherlink.com 1.10,2013-02-05 05:24:00,
2013-02-05 06:39:00,47.6,47.0,30.24,NNE,15,5.0,5.0,96,0.00,,,0.00,weatherlink.com 1.10,2013-02-05 05:39:00,
2013-02-05 06:54:00,47.5,46.0,30.24,North,360,4.0,6.0,95,0.00,,,0.00,weatherlink.com 1.10,2013-02-05 05:54:00,
2013-02-05 07:09:00,47.5,47.0,30.24,NNE,19,4.0,6.0,96,0.00,,,0.00,weatherlink.com 1.10,2013-02-05 06:09:00,
2013-02-05 07:24:00,47.7,47.0,30.23,North,6,5.0,6.0,96,0.00,,,0.00,weatherlink.com 1.10,2013-02-05 06:24:00,
2013-02-05 07:39:00,47.5,47.0,30.23,ENE,65,2.0,3.0,96,0.00,,,0.00,weatherlink.com 1.10,2013-02-05 06:39:00,
2013-02-05 07:54:00,47.0,46.0,30.23,ENE,70,1.0,2.0,96,0.00,,,0.00,weatherlink.com 1.10,2013-02-05 06:54:00,
2013-02-05 08:09:00,46.3,46.0,30.23,NE,39,0.0,2.0,97,0.00,,,0.00,weatherlink.com 1.10,2013-02-05 07:09:00,
2013-02-05 08:24:00,46.6,46.0,30.23,ENE,58,2.0,3.0,96,0.00,,,0.00,weatherlink.com 1.10,2013-02-05 07:24:00,
2013-02-05 08:39:00,45.5,44.0,30.23,ESE,117,1.0,2.0,95,0.00,,,0.00,weatherlink.com 1.10,2013-02-05 07:39:00,
2013-02-05 08:54:00,45.3,44.0,30.23,South,177,1.0,1.0,96,0.00,,,0.00,weatherlink.com 1.10,2013-02-05 07:54:00,
2013-02-05 09:09:00,47.9,47.0,30.23,SSW,204,0.0,0.0,97,0.00,,,0.00,weatherlink.com 1.10,2013-02-05 08:09:00,
2013-02-05 09:24:00,49.0,48.0,30.23,SE,128,0.0,2.0,96,0.00,,,0.00,weatherlink.com 1.10,2013-02-05 08:24:00,
2013-02-05 09:39:00,50.0,49.0,30.23,South,180,0.0,1.0,96,0.00,,,0.00,weatherlink.com 1.10,2013-02-05 08:39:00,
2013-02-05 09:54:00,51.8,51.0,30.23,ENE,60,1.0,2.0,95,0.00,,,0.00,weatherlink.com 1.10,2013-02-05 08:54:00,
2013-02-05 10:09:00,52.8,51.0,30.22,NNE,28,3.0,4.0,92,0.00,,,0.00,weatherlink.com 1.10,2013-02-05 09:09:00,
2013-02-05 10:24:00,54.3,51.0,30.22,North,352,4.0,5.0,89,0.00,,,0.00,weatherlink.com 1.10,2013-02-05 09:24:00,
2013-02-05 10:39:00,55.3,51.0,30.22,NNE,32,5.0,8.0,85,0.00,,,0.00,weatherlink.com 1.10,2013-02-05 09:39:00,
2013-02-05 10:54:00,56.2,52.0,30.21,NE,37,6.0,9.0,85,0.00,,,0.00,weatherlink.com 1.10,2013-02-05 09:54:00,
2013-02-05 11:10:00,57.5,52.0,30.20,NNE,23,6.0,12.0,81,0.00,,,0.00,weatherlink.com 1.10,2013-02-05 10:10:00,
2013-02-05 11:25:00,58.6,52.0,30.20,NE,56,8.0,11.0,78,0.00,,,0.00,weatherlink.com 1.10,2013-02-05 10:25:00,
2013-02-05 11:40:00,59.4,52.0,30.20,NNE,28,10.0,12.0,76,0.00,,,0.00,weatherlink.com 1.10,2013-02-05 10:40:00,
2013-02-05 11:55:00,60.5,47.0,30.20,ENE,76,11.0,16.0,62,0.00,,,0.00,weatherlink.com 1.10,2013-02-05 10:55:00,
2013-02-05 12:10:00,61.4,47.0,30.19,ENE,70,9.0,16.0,60,0.00,,,0.00,weatherlink.com 1.10,2013-02-05 11:10:00,
2013-02-05 12:25:00,61.7,47.0,30.18,ENE,72,8.0,16.0,60,0.00,,,0.00,weatherlink.com 1.10,2013-02-05 11:25:00,
2013-02-05 12:40:00,61.7,48.0,30.18,East,89,17.0,17.0,61,0.00,,,0.00,weatherlink.com 1.10,2013-02-05 11:40:00,
2013-02-05 12:55:00,61.7,48.0,30.17,ENE,75,15.0,16.0,61,0.00,,,0.00,weatherlink.com 1.10,2013-02-05 11:55:00,
2013-02-05 13:10:00,61.7,48.0,30.16,East,94,12.0,18.0,61,0.00,,,0.00,weatherlink.com 1.10,2013-02-05 12:10:00,
2013-02-05 13:25:00,61.8,48.0,30.16,East,79,9.0,16.0,61,0.00,,,0.00,weatherlink.com 1.10,2013-02-05 12:25:00,
2013-02-05 13:40:00,62.0,46.0,30.15,ENE,68,17.0,18.0,56,0.00,,,0.00,weatherlink.com 1.10,2013-02-05 12:40:00,
2013-02-05 13:55:00,62.5,46.0,30.15,ESE,110,10.0,18.0,55,0.00,,,0.00,weatherlink.com 1.10,2013-02-05 12:55:00,
2013-02-05 14:10:00,62.0,46.0,30.14,East,94,17.0,20.0,56,0.00,,,0.00,weatherlink.com 1.10,2013-02-05 13:10:00,
2013-02-05 14:25:00,61.7,46.0,30.14,East,89,13.0,19.0,56,0.00,,,0.00,weatherlink.com 1.10,2013-02-05 13:25:00,
2013-02-05 14:40:00,62.2,47.0,30.13,East,85,13.0,14.0,58,0.00,,,0.00,weatherlink.com 1.10,2013-02-05 13:40:00,
2013-02-05 14:55:00,61.3,46.0,30.12,ESE,116,13.0,17.0,58,0.00,,,0.00,weatherlink.com 1.10,2013-02-05 13:55:00,
2013-02-05 15:10:00,61.4,46.0,30.12,East,81,12.0,18.0,57,0.00,,,0.00,weatherlink.com 1.10,2013-02-05 14:10:00,
2013-02-05 15:25:00,60.9,45.0,30.12,NE,54,9.0,20.0,57,0.00,,,0.00,weatherlink.com 1.10,2013-02-05 14:25:00,
2013-02-05 15:40:00,60.7,46.0,30.11,East,79,17.0,19.0,58,0.00,,,0.00,weatherlink.com 1.10,2013-02-05 14:40:00,
2013-02-05 15:55:00,60.6,46.0,30.10,East,89,11.0,18.0,59,0.00,,,0.00,weatherlink.com 1.10,2013-02-05 14:55:00,
2013-02-05 16:10:00,60.4,46.0,30.10,ENE,61,13.0,18.0,59,0.00,,,0.00,weatherlink.com 1.10,2013-02-05 15:10:00,
2013-02-05 16:25:00,60.9,46.0,30.09,SE,131,7.0,14.0,59,0.00,,,0.00,weatherlink.com 1.10,2013-02-05 15:25:00,
2013-02-05 16:40:00,60.7,46.0,30.09,East,96,9.0,13.0,59,0.00,,,0.00,weatherlink.com 1.10,2013-02-05 15:40:00,
2013-02-05 16:55:00,61.0,45.0,30.09,East,90,6.0,14.0,57,0.00,,,0.00,weatherlink.com 1.10,2013-02-05 15:55:00,
2013-02-05 17:10:00,60.9,45.0,30.09,East,98,15.0,15.0,56,0.00,,,0.00,weatherlink.com 1.10,2013-02-05 16:10:00,
2013-02-05 17:25:00,60.8,45.0,30.09,ENE,75,6.0,9.0,57,0.00,,,0.00,weatherlink.com 1.10,2013-02-05 16:25:00,
2013-02-05 17:40:00,59.9,45.0,30.08,East,93,9.0,14.0,58,0.00,,,0.00,weatherlink.com 1.10,2013-02-05 16:40:00,
2013-02-05 17:55:00,58.6,45.0,30.08,ENE,67,7.0,11.0,61,0.00,,,0.00,weatherlink.com 1.10,2013-02-05 16:55:00,
2013-02-05 18:10:00,57.4,45.0,30.07,ENE,72,5.0,8.0,64,0.00,,,0.00,weatherlink.com 1.10,2013-02-05 17:10:00,
2013-02-05 18:25:00,56.2,48.0,30.07,ENE,64,8.0,9.0,73,0.00,,,0.00,weatherlink.com 1.10,2013-02-05 17:25:00,
2013-02-05 18:40:00,55.4,49.0,30.07,NNE,30,9.0,10.0,78,0.00,,,0.00,weatherlink.com 1.10,2013-02-05 17:40:00,
2013-02-05 18:55:00,54.3,49.0,30.07,NE,37,6.0,10.0,81,0.00,,,0.00,weatherlink.com 1.10,2013-02-05 17:55:00,
2013-02-05 19:10:00,53.5,48.0,30.07,NNE,33,5.0,8.0,81,0.00,,,0.00,weatherlink.com 1.10,2013-02-05 18:10:00,
2013-02-05 19:25:00,52.8,47.0,30.07,NNW,342,3.0,8.0,82,0.00,,,0.00,weatherlink.com 1.10,2013-02-05 18:25:00,
2013-02-05 19:40:00,52.1,47.0,30.06,NNE,18,3.0,8.0,83,0.00,,,0.00,weatherlink.com 1.10,2013-02-05 18:40:00,
2013-02-05 19:55:00,51.7,47.0,30.06,North,5,2.0,8.0,83,0.00,,,0.00,weatherlink.com 1.10,2013-02-05 18:55:00,
2013-02-05 20:10:00,51.4,47.0,30.05,NNE,27,4.0,8.0,84,0.00,,,0.00,weatherlink.com 1.10,2013-02-05 19:10:00,
2013-02-05 20:25:00,50.9,47.0,30.05,NNE,13,6.0,7.0,85,0.00,,,0.00,weatherlink.com 1.10,2013-02-05 19:25:00,
2013-02-05 20:40:00,50.9,48.0,30.04,NE,42,6.0,7.0,88,0.00,,,0.00,weatherlink.com 1.10,2013-02-05 19:40:00,
2013-02-05 20:55:00,51.3,48.0,30.04,ENE,65,0.0,6.0,89,0.00,,,0.00,weatherlink.com 1.10,2013-02-05 19:55:00,
2013-02-05 21:10:00,51.3,49.0,30.04,NNE,33,0.0,5.0,90,0.00,,,0.00,weatherlink.com 1.10,2013-02-05 20:10:00,
2013-02-05 21:25:00,51.3,48.0,30.03,NNE,32,6.0,10.0,89,0.00,,,0.00,weatherlink.com 1.10,2013-02-05 20:25:00,
2013-02-05 21:40:00,51.7,49.0,30.02,NE,50,9.0,15.0,90,0.00,,,0.00,weatherlink.com 1.10,2013-02-05 20:40:00,
2013-02-05 21:55:00,52.0,50.0,30.02,NE,54,12.0,17.0,91,0.00,,,0.00,weatherlink.com 1.10,2013-02-05 20:55:00,
2013-02-05 22:10:00,51.6,49.0,30.02,NE,38,11.0,12.0,92,0.00,,,0.00,weatherlink.com 1.10,2013-02-05 21:10:00,
2013-02-05 22:25:00,51.5,49.0,30.02,NE,44,6.0,12.0,91,0.00,,,0.00,weatherlink.com 1.10,2013-02-05 21:25:00,
2013-02-05 22:40:00,51.6,49.0,30.01,NNE,32,6.0,9.0,92,0.00,,,0.00,weatherlink.com 1.10,2013-02-05 21:40:00,
2013-02-05 22:55:00,51.7,49.0,30.00,NE,50,9.0,10.0,90,0.00,,,0.00,weatherlink.com 1.10,2013-02-05 21:55:00,
2013-02-05 23:10:00,51.8,49.0,29.99,NE,47,10.0,12.0,91,0.00,,,0.00,weatherlink.com 1.10,2013-02-05 22:10:00,
2013-02-05 23:25:00,51.7,49.0,29.99,NE,37,9.0,13.0,91,0.00,,,0.00,weatherlink.com 1.10,2013-02-05 22:25:00,
2013-02-05 23:40:00,51.5,50.0,29.98,NE,48,10.0,12.0,93,0.00,,,0.00,weatherlink.com 1.10,2013-02-05 22:40:00,
2013-02-05 23:55:00,50.9,49.0,29.98,NNE,32,7.0,9.0,94,0.00,,,0.00,weatherlink.com 1.10,2013-02-05 22:55:00,